Hutchinson, KS

5:36 AM CST on February 26, 2017 (GMT -0600)
Hutchinson Municipal

Weather History for KHUT - January, 2013

Change the Weather History Date:

Tuesday, January 15, 2013

  Actual Average Record
Temperature  
Mean Temperature 23 °F -  
Max Temperature 36 °F 41 °F 64 °F (2006)
Min Temperature 10 °F 17 °F 3 °F (2005)
Degree Days  
Heating Degree Days 42    
Moisture  
Dew Point 11 °F    
Average Humidity 63    
Maximum Humidity 84    
Minimum Humidity 39    
Precipitation  
Precipitation 0.00 in - - ()
Sea Level Pressure  
Sea Level Pressure 30.29 in    
Wind  
Wind Speed 1 mph (WSW)    
Max Wind Speed 7 mph    
Max Gust Speed -    
Visibility 10 miles    
Events      
Averages and records for this station are not official NWS values.
T = Trace of Precipitation, MM = Missing Value Source: NWS Daily Summary

Daily Weather History Graph

Daily Weather History Graph

Search for Another Location

Airport or City:

Trip Planner

Search our weather history database for the weather conditions in past years. The results will help you decide how hot, cold, wet, or windy it might be!

Date:

Astronomy

Jan. 15, 2013 Rise Set
Actual Time 7:46 AM CST 5:36 PM CST
Civil Twilight 7:17 AM CST 6:04 PM CST
Nautical Twilight 6:45 AM CST 6:37 PM CST
Astronomical Twilight 6:13 AM CST 7:08 PM CST
Moon 9:57 AM CST (1/15) 10:21 PM CST (1/15)
Length of Visible Light 10h 47m
Length of Day
9h 49m
Waxing Crescent, 19% of the Moon is Illuminated
Jan 15
Waxing Crescent
Jan 18
First Quarter
Jan 26
Full
Feb 3
Last Quarter
Feb 10
New

Hourly Weather History & Observations

Time (CST) Temp. Windchill Dew Point Humidity Pressure Visibility Wind Dir Wind Speed Gust Speed Precip Events Conditions
12:52 AM 18.0 °F - 10.9 °F 74% 30.37 in 10.0 mi Calm Calm - N/A   Overcast
1:52 AM 17.1 °F 10.0 °F 10.9 °F 77% 30.35 in 10.0 mi ESE 4.6 mph - N/A   Scattered Clouds
2:52 AM 15.1 °F - 9.0 °F 77% 30.35 in 10.0 mi Calm Calm - N/A   Clear
5:52 AM 10.9 °F - 7.0 °F 84% 30.36 in 10.0 mi Calm Calm - N/A   Mostly Cloudy
6:52 AM 12.0 °F - 8.1 °F 84% 30.36 in 10.0 mi Calm Calm - N/A   Clear
7:52 AM 10.9 °F - 6.1 °F 81% 30.35 in 10.0 mi Calm Calm - N/A   Clear
8:52 AM 19.0 °F - 12.9 °F 77% 30.35 in 10.0 mi Calm Calm - N/A   Clear
9:52 AM 25.0 °F - 10.9 °F 55% 30.34 in 10.0 mi Calm Calm - N/A   Clear
10:52 AM 28.9 °F 25.2 °F 10.9 °F 47% 30.34 in 10.0 mi SW 3.5 mph - N/A   Clear
11:52 AM 30.0 °F 26.5 °F 12.0 °F 47% 30.32 in 10.0 mi South 3.5 mph - N/A   Clear
12:52 PM 32.0 °F - 10.9 °F 42% 30.29 in 10.0 mi Calm Calm - N/A   Clear
1:52 PM 33.1 °F 28.7 °F 12.0 °F 42% 30.26 in 10.0 mi West 4.6 mph - N/A   Clear
2:52 PM 36.0 °F 30.3 °F 12.9 °F 39% 30.25 in 10.0 mi West 6.9 mph - N/A   Clear
3:52 PM 36.0 °F 33.3 °F 12.9 °F 39% 30.25 in 10.0 mi NW 3.5 mph - N/A   Clear
4:52 PM 34.0 °F 28.8 °F 12.0 °F 40% 30.25 in 10.0 mi West 5.8 mph - N/A   Clear
5:52 PM 27.0 °F - 12.0 °F 53% 30.26 in 10.0 mi Calm Calm - N/A   Clear
6:52 PM 21.0 °F - 10.9 °F 65% 30.26 in 10.0 mi Calm Calm - N/A   Clear
7:52 PM 19.0 °F - 10.9 °F 71% 30.27 in 10.0 mi Calm Calm - N/A   Clear
8:52 PM 16.0 °F - 10.0 °F 77% 30.25 in 10.0 mi Calm Calm - N/A   Clear
9:52 PM 19.9 °F - 12.0 °F 71% 30.22 in 10.0 mi Calm Calm - N/A   Clear
10:52 PM 16.0 °F 10.4 °F 10.0 °F 77% 30.22 in 10.0 mi SSW 3.5 mph - N/A   Clear
11:52 PM 18.0 °F - 10.0 °F 71% 30.21 in 10.0 mi Calm Calm - N/A   Clear